Station GRRT2 - 8771486 - Galveston RR Bridge, TX Image indicating link to RSS feed of recent meteorological observations for station GRRT2


Conditions at GRRT2 as of
(10:30 am CDT)
1530 GMT on 06/25/2024:
     

Click on the graph icon in the table below to see a time series plot of the last five days of that observation.

5-day plot - Wind Direction Wind Direction (WDIR):SSE ( 150 deg true )
5-day plot - Wind Speed Wind Speed (WSPD): 6.0 kts
5-day plot - Wind Gust Wind Gust (GST): 9.9 kts
5-day plot - Atmospheric Pressure Atmospheric Pressure (PRES):29.94 in
5-day plot - Air Temperature Air Temperature (ATMP): 84.9 °F
5-day plot - Water Temperature Water Temperature (WTMP): 87.8 °F
5-day plot - Wind Speed at 10 Meters Wind Speed at 10 meters (WSPD10M): 7.8 kts
5-day plot - Wind Speed at 20 Meters Wind Speed at 20 meters (WSPD20M): 7.8 kts
5-day plot -  Wind Speed, Wind Gust and Atmospheric Pressure Combined plot of Wind Speed, Gust, and Air Pressure
Previous observations
TIME
(CDT)
5-day plot - Wind Direction
WDIR
 
5-day plot - Wind Speed
WSPD
kts
5-day plot - Wind Gust
GST
kts
5-day plot - Wave Height
WVHT
ft
5-day plot - Dominant Wave Period
DPD
sec
5-day plot - Average Wave Period
APD
sec
5-day plot - Mean Wave Direction
MWD
 
5-day plot - Atmospheric Pressure
PRES
in
5-day plot - Pressure Tendency
PTDY
in
5-day plot - Air Temperature
ATMP
°F
5-day plot - Water Temperature
WTMP
°F
5-day plot - Dew Point
DEWP
°F
5-day plot - Salinity
SAL
psu
5-day plot - Visibility
VIS
nmi
5-day plot - Tide (above MLLW)
TIDE
ft
2024-06-25 10:24 amSSE 8.0 11.1----29.94- 84.9 88.0----
2024-06-25 10:18 amSSE 8.0 9.9----29.94- 85.1 88.0----
2024-06-25 10:12 amSSE 7.0 11.1----29.94- 85.1 87.8----
2024-06-25 10:06 amSSE 7.0 9.9----29.94- 85.1 87.8----
2024-06-25 10:00 am S 7.0 9.9----29.94+0.02 85.3 87.8----
2024-06-25 09:54 amSSE 6.0 8.9----29.94- 84.9 87.8----
2024-06-25 09:48 am S 7.0 8.9----29.94- 84.9 87.8----
2024-06-25 09:42 am S 8.0 9.9----29.94- 84.7 87.8----
2024-06-25 09:36 amSSE 7.0 8.9----29.94- 85.1 87.8----
2024-06-25 09:30 amSSE 7.0 8.0----29.94- 84.9 87.8----
2024-06-25 09:24 am S 7.0 8.0----29.94- 84.4 87.8----
2024-06-25 09:18 am S 7.0 11.1----29.94- 84.6 88.0----
2024-06-25 09:12 am S 7.0 8.9----29.94- 84.6 88.0----
2024-06-25 09:06 amSSE 6.0 8.9----29.94- 84.4 88.0----
2024-06-25 09:00 amSSE 7.0 8.9----29.94+0.04 84.4 88.0----
2024-06-25 08:54 amSSE 8.0 11.1----29.94- 84.6 88.0----
2024-06-25 08:48 amSSE 7.0 8.9----29.94- 84.9 88.0----
2024-06-25 08:42 amSSE 8.0 11.1----29.94- 84.2 88.0----
2024-06-25 08:36 amSSE 7.0 9.9----29.94- 84.4 88.0----
2024-06-25 08:30 amSSE 7.0 8.9----29.94- 84.2 88.0----
2024-06-25 08:24 amSSE 8.0 9.9----29.94- 84.2 88.0----
2024-06-25 08:18 am S 6.0 8.9----29.94- 84.4 88.0----
2024-06-25 08:12 am S 7.0 8.9----29.93- 84.6 88.0----
2024-06-25 08:06 am S 7.0 8.9----29.93- 84.7 88.0----
2024-06-25 08:00 am S 7.0 11.1----29.93+0.03 84.6 88.0----
2024-06-25 07:54 amSSE 7.0 8.9----29.93- 84.2 88.0----
2024-06-25 07:48 amSSE 7.0 8.0----29.93- 84.4 88.0----
2024-06-25 07:42 amSSE 8.0 9.9----29.93- 84.4 88.0----
2024-06-25 07:36 amSSE 7.0 8.9----29.93- 84.4 88.0----
2024-06-25 07:30 amSSE 6.0 8.9----29.93- 84.2 88.0----
2024-06-25 07:24 amSSE 7.0 9.9----29.92- 83.8 88.0----
2024-06-25 07:18 amSSE 7.0 8.9----29.92- 84.0 88.2----
2024-06-25 07:12 amSSE 6.0 8.9----29.92- 83.8 88.2----
2024-06-25 07:06 amSSE 6.0 8.9----29.92- 83.8 88.2----
2024-06-25 07:00 amSSE 7.0 8.9----29.92+0.03 83.8 88.2----
2024-06-25 06:54 amSSE 7.0 8.9----29.92- 83.8 88.2----
2024-06-25 06:48 amSSE 6.0 8.0------ 83.8 88.2----
2024-06-25 06:42 amSSE 7.0 8.9------ 83.8 88.2----
2024-06-25 06:36 amSSE 6.0 8.9------ 83.8 88.2----
2024-06-25 06:30 amSSE 7.0 9.9----29.91- 83.7 88.2----
2024-06-25 06:24 amSSE 7.0 8.9----29.91- 83.7 88.2----
2024-06-25 06:18 amSSE 7.0 9.9----29.91- 83.7 88.2----
2024-06-25 06:12 amSSE 8.0 9.9----29.91- 83.8 88.2----
2024-06-25 06:06 amSSE 8.0 9.9----29.91- 83.7 88.2----
2024-06-25 06:00 amSSE 8.0 9.9----29.90+0.01 83.7 88.2----
2024-06-25 05:54 amSSE 9.9 12.0----29.90- 83.7 88.2----
2024-06-25 05:48 amSSE 7.0 9.9----29.90- 83.7 88.2----
2024-06-25 05:42 amSSE 7.0 8.9----29.90- 83.7 88.2----
2024-06-25 05:36 am SE 8.0 9.9----29.90- 83.5 88.2----
2024-06-25 05:30 amSSE 8.0 9.9----29.90- 83.7 88.2----
2024-06-25 05:24 am SE 8.9 11.1----29.90- 83.7 88.2----
2024-06-25 05:18 amSSE 8.9 12.0----29.90- 83.5 88.2----
2024-06-25 05:12 amSSE 8.9 11.1----29.90- 83.7 88.2----
2024-06-25 05:06 am SE 8.0 12.0----29.90- 83.7 88.2----
2024-06-25 05:00 am SE 6.0 9.9----29.90+0.01 83.7 88.2----
2024-06-25 04:54 am SE 6.0 8.9----29.90- 83.5 88.2----
2024-06-25 04:48 am SE 7.0 8.9----29.90- 83.5 88.2----
2024-06-25 04:42 amSSE 8.0 9.9----29.90- 83.8 88.2----
2024-06-25 04:36 amSSE 8.0 9.9----29.90- 83.5 88.3----
2024-06-25 04:30 amSSE 7.0 9.9----29.90- 83.8 88.3----
2024-06-25 04:24 amSSE 7.0 9.9----29.89- 83.7 88.3----
2024-06-25 04:18 amSSE 8.9 11.1----29.89- 83.7 88.3----
2024-06-25 04:12 amSSE 8.0 11.1----29.89- 83.5 88.3----
2024-06-25 04:06 amSSE 8.9 12.0----29.89- 83.7 88.3----
2024-06-25 04:00 am SE 8.9 12.0----29.89+0.00 83.7 88.3----
2024-06-25 03:54 am SE 8.0 11.1----29.89- 83.7 88.5----
2024-06-25 03:48 amSSE 7.0 9.9----29.89- 83.7 88.5----
2024-06-25 03:42 amSSE 7.0 8.9----29.89- 83.7 88.5----
2024-06-25 03:36 amSSE 7.0 12.0----29.89- 84.0 88.5----
2024-06-25 03:30 amSSE 8.0 11.1----29.89- 83.8 88.7----
2024-06-25 03:24 amSSE 9.9 12.0----29.89- 83.8 88.7----
2024-06-25 03:18 amSSE 8.0 12.0----29.89- 83.7 88.7----
2024-06-25 03:12 amSSE 11.1 13.0----29.89- 83.7 88.7----
2024-06-25 03:06 amSSE 11.1 13.0----29.89- 83.7 88.7----
2024-06-25 03:00 amSSE 11.1 14.0----29.89+0.00 83.8 88.9----
2024-06-25 02:54 amSSE 11.1 13.0----29.89- 83.5 88.9----
2024-06-25 02:48 amSSE 8.0 12.0----29.89- 83.8 88.9----
2024-06-25 02:42 amSSE 8.0 12.0----29.89- 83.7 88.9----
2024-06-25 02:36 amSSE 8.0 9.9----29.89- 83.5 88.9----
2024-06-25 02:30 amSSE 8.0 9.9----29.89- 83.7 89.1----
2024-06-25 02:24 amSSE 8.9 12.0----29.89- 83.7 89.1----
2024-06-25 02:18 amSSE 8.9 11.1----29.89- 83.8 89.1----
2024-06-25 02:12 am SE 8.0 11.1----29.89- 83.7 89.1----
2024-06-25 02:06 am SE 8.0 11.1----29.89- 83.8 89.1----
2024-06-25 02:00 am SE 8.9 11.1----29.89+0.00 83.7 89.2----
2024-06-25 01:54 am SE 8.0 12.0----29.89- 83.8 89.2----
2024-06-25 01:48 am SE 7.0 11.1----29.89- 84.0 89.2----
2024-06-25 01:42 amSSE 8.0 11.1----29.89- 83.8 89.2----
2024-06-25 01:36 am SE 8.0 9.9----29.89- 83.7 89.2----
2024-06-25 01:30 am SE 8.9 12.0----29.89- 84.0 89.2----
2024-06-25 01:24 am SE 7.0 11.1----29.89- 83.8 89.2----
2024-06-25 01:18 am SE 8.9 12.0----29.89- 83.5 89.2----
2024-06-25 01:12 am SE 8.0 11.1----29.89- 83.8 89.2----
2024-06-25 01:06 am SE 8.0 11.1----29.89- 83.8 89.4----
2024-06-25 01:00 am SE 8.0 9.9----29.89+0.01 84.0 89.4----
2024-06-25 12:54 am SE 8.9 11.1----29.89- 84.0 89.4----
2024-06-25 12:48 am SE 8.0 12.0----29.89- 84.0 89.4----
2024-06-25 12:42 am SE 8.0 11.1----29.89- 84.0 89.4----
2024-06-25 12:36 am SE 7.0 9.9----29.89- 84.4 89.4----
2024-06-25 12:30 am SE 8.0 9.9----29.89- 84.0 89.4----
2024-06-25 12:24 am SE 8.0 11.1----29.89- 84.0 89.4----
2024-06-25 12:18 am SE 7.0 9.9----29.89- 83.8 89.4----
2024-06-25 12:12 am SE 8.9 13.0----29.89- 84.0 89.4----
2024-06-25 12:06 am SE 8.9 12.0----29.89- 83.8 89.4----
2024-06-25 12:00 am SE 8.9 11.1----29.89+0.02 84.2 89.4----
2024-06-24 11:54 pm SE 8.0 12.0----29.89- 84.2 89.4----
2024-06-24 11:48 pm SE 8.0 11.1----29.89- 84.0 89.4----
2024-06-24 11:42 pm SE 8.0 11.1----29.89- 84.0 89.4----
2024-06-24 11:36 pm SE 8.0 11.1----29.89- 84.0 89.4----
2024-06-24 11:30 pm SE 8.9 13.0----29.89- 84.0 89.4----
2024-06-24 11:24 pm SE 8.0 11.1----29.89- 84.2 89.4----
2024-06-24 11:18 pm SE 8.0 12.0----29.89- 84.4 89.4----
2024-06-24 11:12 pm SE 8.0 12.0----29.89- 84.2 89.4----
2024-06-24 11:06 pm SE 7.0 12.0----29.89- 84.4 89.4----
2024-06-24 11:00 pm SE 8.9 11.1----29.89+0.02 84.2 89.4----
2024-06-24 10:54 pm SE 8.9 12.0----29.89- 84.4 89.4----
2024-06-24 10:48 pm SE 8.9 12.0----29.89- 84.4 89.6----
2024-06-24 10:42 pm SE 8.0 11.1----29.89- 84.2 89.6----
2024-06-24 10:36 pm SE 8.0 11.1----29.89- 84.2 89.6----
2024-06-24 10:30 pm SE 8.0 12.0----29.89- 84.2 89.6----
2024-06-24 10:24 pm SE 8.9 12.0----29.89- 84.4 89.6----
2024-06-24 10:18 pm SE 8.0 11.1----29.89- 84.2 89.8----
2024-06-24 10:12 pmESE 8.9 11.1----29.88- 84.0 89.8----
2024-06-24 10:06 pm SE 8.0 11.1----29.88- 84.4 89.8----
2024-06-24 10:00 pm SE 8.9 11.1----29.88+0.01 84.4 90.0----
2024-06-24 09:54 pm SE 8.0 11.1----29.88- 84.4 90.0----
2024-06-24 09:48 pmESE 8.9 11.1----29.88- 84.2 90.0----
2024-06-24 09:42 pm SE 8.0 11.1----29.88- 84.2 90.1----
2024-06-24 09:36 pm SE 7.0 8.9----29.88- 84.6 90.1----
2024-06-24 09:30 pm SE 7.0 9.9----29.88- 84.4 90.1----
2024-06-24 09:24 pm SE 6.0 9.9----29.87- 84.4 90.3----
2024-06-24 09:18 pm SE 8.0 9.9----29.87- 84.4 90.3----
2024-06-24 09:12 pm SE 7.0 11.1----29.87- 84.4 90.3----
2024-06-24 09:06 pm SE 7.0 8.9----29.87- 84.6 90.5----
2024-06-24 09:00 pm SE 7.0 8.9----29.87+0.00 84.4 90.5----
2024-06-24 08:54 pm SE 7.0 9.9----29.87- 84.4 90.5----
2024-06-24 08:48 pm SE 8.0 9.9----29.87- 84.4 90.5----
2024-06-24 08:42 pmESE 8.0 9.9----29.87- 84.4 90.5----
2024-06-24 08:36 pmESE 7.0 8.0----29.87- 84.4 90.5----
2024-06-24 08:30 pm SE 7.0 8.9----29.87- 84.4 90.5----
2024-06-24 08:24 pm SE 8.0 9.9----29.87- 84.6 90.5----
2024-06-24 08:18 pm SE 6.0 9.9----29.87- 84.6 90.5----
2024-06-24 08:12 pmESE 8.9 12.0----29.87- 84.6 90.5----
2024-06-24 08:06 pm SE 7.0 9.9----29.87- 84.7 90.5----
2024-06-24 08:00 pm SE 8.0 11.1----29.87-0.01 84.7 90.5----
2024-06-24 07:54 pmESE 8.9 11.1----29.87- 84.7 90.5----
2024-06-24 07:48 pm SE 7.0 9.9----29.87- 84.9 90.5----
2024-06-24 07:42 pmESE 7.0 8.9----29.87- 84.6 90.5----
2024-06-24 07:36 pmESE 8.0 9.9----29.87- 84.7 90.5----
2024-06-24 07:30 pmESE 8.0 11.1----29.87- 84.7 90.3----
2024-06-24 07:24 pmESE 8.0 11.1----29.87- 84.6 90.3----
2024-06-24 07:18 pm SE 7.0 9.9----29.87- 84.9 90.1----
2024-06-24 07:12 pm SE 8.0 11.1----29.87- 84.7 90.0----
2024-06-24 07:06 pmESE 8.9 11.1----29.87- 84.9 89.8----
2024-06-24 07:00 pm SE 8.0 11.1----29.87-0.03------
2024-06-24 06:54 pm SE 8.0 11.1----29.87-------
2024-06-24 06:48 pmESE 6.0 8.9----29.87- 85.5 89.1----
2024-06-24 06:42 pmESE 8.0 13.0----29.87- 85.3 89.1----
2024-06-24 06:36 pmESE 8.0 11.1----29.87- 85.3 89.1----
2024-06-24 06:30 pmESE 7.0 9.9----29.87- 85.3 89.1----
2024-06-24 06:24 pmESE 8.0 11.1----29.87- 85.3 88.9----
2024-06-24 06:18 pm SE 8.0 9.9----29.87-- 88.9----
2024-06-24 06:12 pm SE 6.0 9.9----29.87-- 89.1----
2024-06-24 06:06 pmESE 7.0 11.1----29.87-- 89.2----
2024-06-24 06:00 pmESE 7.0 9.9----29.87-------
2024-06-24 05:54 pmESE 8.9 11.1----29.87-------
2024-06-24 05:48 pmESE 7.0 9.9----29.88- 85.5 89.6----
2024-06-24 05:42 pmESE 7.0 11.1----29.88- 85.5 89.8----
2024-06-24 05:36 pmESE 8.0 11.1----29.88- 85.3 90.0----
2024-06-24 05:30 pm SE 8.0 9.9----29.88- 85.5 90.0----
2024-06-24 05:24 pmESE 8.0 9.9----29.88- 85.6 89.8----
2024-06-24 05:18 pmESE 7.0 9.9----29.88- 85.8 90.0----
2024-06-24 05:12 pmESE 6.0 8.9----29.88- 86.2 90.0----
2024-06-24 05:06 pmESE 7.0 8.9----29.88- 86.2 90.0----
2024-06-24 05:00 pmESE 7.0 9.9----29.88- 85.8 90.0----
2024-06-24 04:54 pmESE 8.0 9.9----29.88- 85.6 90.0----
2024-06-24 04:48 pmESE 7.0 9.9----29.89- 85.8 90.0----
2024-06-24 04:42 pmESE 7.0 9.9----29.89- 85.8 89.8----
2024-06-24 04:36 pmESE 6.0 8.9----29.89- 86.0 89.6----
2024-06-24 04:30 pmESE 7.0 9.9----29.89- 85.8 89.6----
2024-06-24 04:24 pmESE 7.0 8.9----29.89- 85.6 89.6----
2024-06-24 04:18 pmESE 7.0 11.1----29.90- 85.5 89.2----
2024-06-24 04:12 pmESE 7.0 8.9----29.90- 85.6 89.4----
2024-06-24 04:06 pmESE 7.0 9.9----29.90- 85.8 88.7----
2024-06-24 04:00 pmESE 6.0 9.9----29.90-0.04 85.6 88.3----
2024-06-24 03:54 pmESE 8.0 8.9----29.90- 85.3 88.2----
2024-06-24 03:48 pmESE 8.0 11.1----29.90- 85.3 88.7----
2024-06-24 03:42 pmESE 6.0 11.1----29.91- 85.6 87.6----
2024-06-24 03:36 pmESE 6.0 8.9----29.91- 86.0 87.8----
2024-06-24 03:30 pm SE 5.1 8.0----29.91- 85.8 88.0----
2024-06-24 03:24 pm SE 6.0 8.9----29.91- 86.0 87.4----
2024-06-24 03:18 pm SE 6.0 8.9----29.91- 85.8 87.4----
2024-06-24 03:12 pm SE 5.1 8.9----29.92- 86.0 87.3----
2024-06-24 03:06 pm SE 6.0 8.0----29.92- 85.8 87.3----
2024-06-24 03:00 pm SE 5.1 8.0------ 85.8 87.4----
2024-06-24 02:54 pmESE 5.1 7.0------ 85.8 87.3----
2024-06-24 02:48 pm SE 6.0 8.9----29.93-- 87.1----
2024-06-24 02:42 pm SE 5.1 8.9----29.93-- 87.1----
2024-06-24 02:36 pmESE 6.0 8.9----29.93-- 87.1----
2024-06-24 02:30 pmESE 6.0 8.0----29.93- 85.5 87.1----
2024-06-24 02:24 pm SE 6.0 8.9----29.93- 85.5 87.1----
2024-06-24 02:18 pm SE 6.0 8.0----29.93- 85.5 87.3----
2024-06-24 02:12 pmESE 6.0 9.9----29.93- 85.3 87.1----
2024-06-24 02:06 pm SE 6.0 8.9----29.94- 85.5 87.1----
2024-06-24 02:00 pm SE 6.0 8.9------ 85.5 87.1----
2024-06-24 01:54 pm SE 6.0 8.0------ 85.3 87.1----
2024-06-24 01:48 pmESE 6.0 8.0----29.94- 85.3 86.9----
2024-06-24 01:42 pm SE 6.0 8.0----29.94- 85.3 87.1----
2024-06-24 01:36 pm SE 5.1 8.0----29.94- 85.5 86.9----
2024-06-24 01:30 pm SE 6.0 8.0----29.94- 85.5 86.9----
2024-06-24 01:24 pm SE 6.0 8.0----29.94- 85.3 86.9----
2024-06-24 01:18 pm SE 5.1 8.0----29.94- 85.5 86.9----
2024-06-24 01:12 pm SE 4.1 7.0----29.94- 85.5 86.9----
2024-06-24 01:06 pm SE 5.1 8.0----29.94- 85.5 86.9----
2024-06-24 01:00 pm SE 5.1 8.0----29.94+0.00 85.3 86.9----
2024-06-24 12:54 pmESE 5.1 7.0----29.94- 85.1 86.9----
2024-06-24 12:48 pm SE 5.1 8.0----29.95- 85.3 86.9----
2024-06-24 12:42 pmESE 6.0 8.9----29.95- 84.7 86.9----
2024-06-24 12:36 pmESE 6.0 8.9----29.95- 85.3 86.9----
2024-06-24 12:30 pm SE 5.1 8.0----29.95- 85.3 86.9----
2024-06-24 12:24 pm SE 5.1 8.0----29.95- 85.1 86.9----
2024-06-24 12:18 pm SE 5.1 8.0----29.95- 85.1 86.9----
2024-06-24 12:12 pm SE 5.1 8.0----29.95- 85.1 86.9----
2024-06-24 12:06 pm SE 5.1 8.0----29.95- 85.1 86.9----
2024-06-24 12:00 pm SE 6.0 8.0----29.95+0.01 85.1 86.9----
2024-06-24 11:54 am SE 5.1 7.0----29.95- 84.7 86.9----
2024-06-24 11:48 am SE 6.0 7.0----29.95- 84.7 86.9----
2024-06-24 11:42 am SE 5.1 8.0----29.95- 85.1 87.1----
2024-06-24 11:36 am SE 5.1 7.0----29.95- 84.9 87.1----
2024-06-24 11:30 am SE 5.1 6.0----29.95- 84.9 87.1----
2024-06-24 11:24 am SE 5.1 7.0----29.95- 84.9 87.3----
2024-06-24 11:18 amESE 5.1 8.0----29.95- 84.9 87.3----
2024-06-24 11:12 amESE 5.1 8.9----29.95- 84.7 87.3----
2024-06-24 11:06 am SE 5.1 7.0----29.95- 84.9 87.3----
2024-06-24 11:00 am SE 5.1 7.0----29.94+0.03 84.7 87.3----
2024-06-24 10:54 am SE 5.1 7.0----29.94- 84.7 87.3----